Tracking 29034 objects as of 24-Jun-2024
HD Live streaming from Space Station
objects crossing your sky now

STARLINK-6306

Track STARLINK-6306 now!
10-day predictions
STARLINK-6306 is classified as:


NORAD ID: 57242
Int'l Code: 2023-094AA
Perigee: 565.3 km
Apogee: 567.1 km
Inclination: 43.0 °
Period: 95.8 minutes
Semi major axis: 6937 km
RCS: Unknown
Launch date: July 7, 2023
Source: United States (US)
Launch site: AIR FORCE WESTERN TEST RANGE (AFWTR)
Your satellite tracking list
Your tracking list is empty




NASA's NSSDC Master Catalog

Two Line Element Set (TLE):
1 57242U 23094AA  24176.38691349 -.00000035  00000-0  12466-4 0  9993
2 57242  43.0025 164.6438 0001279 275.9675  84.1022 15.02534729 53506
Source of the keplerian elements: AFSPC